Regional Weather Roundup
Issued by NWS Boston, MA

Home | Current Version | Previous Version | Text Only | Print | Product List | Glossary On
Versions: 1 2 3 4 5 6 7 8 9 10 11 12 13 14 15 16 17 18 19 20 21 22 23 24 25 26 27 28 29 30 31 32 33 34 35 36 37 38 39 40 41 42 43 44 45 46 47 48 49 50
000
ASUS41 KBOX 290510
RWRBOX

REGIONAL WEATHER ROUNDUP
NATIONAL WEATHER SERVICE TAUNTON MA
1200 AM EST MON DEC 29 2014

NOTE:  "FAIR" INDICATES FEW OR NO CLOUDS BELOW 12,000 FEET WITH NO
SIGNIFICANT WEATHER AND/OR OBSTRUCTIONS TO VISIBILITY.  THE FOLLOWING
OBSERVATION LOCATIONS DO NOT REPORT PRESENT WEATHER...PROVINCETOWN...
SMITHFIELD...BLOCK ISLAND...KEENE...AND OXFORD.

MAZALL-290600-
EASTERN MASSACHUSETTS

CITY           SKY/WX    TMP DP  RH WIND       PRES   REMARKS
BOSTON         MOCLDY    40  27  59 W13       29.99R
BEVERLY        CLEAR     38  27  64 W7        29.96R
LAWRENCE       PTCLDY    39  25  57 NW9       29.99R
BEDFORD        CLEAR     37  26  64 W7        29.98R WCI  32
BLUE HILL        N/A     35  27  72 W15G23    29.96R WCI  25
NORWOOD        CLEAR     38  26  62 W10       29.99R WCI  31
MARSHFIELD     MOCLDY    39  30  70 NW6       29.99R
PLYMOUTH       MOCLDY    39  29  67 W12G18    29.98R WCI  32
TAUNTON        PTCLDY    40  27  59 W12G18    29.99R
NEW BEDFORD    MOCLDY    40  27  59 NW10G20   29.98R
$$

MAZALL-290600-
CAPE COD AND THE ISLANDS

CITY           SKY/WX    TMP DP  RH WIND       PRES   REMARKS
FALMOUTH       CLOUDY    41  30  65 VRB6G14   29.97R
HYANNIS        CLOUDY    41  30  65 NW8       29.96R
CHATHAM        CLOUDY    42  32  67 NW6       29.97R
PROVINCETOWN   MOCLDY    43  30  61 NW17      29.97R
NANTUCKET      CLOUDY    45  33  63 NW14      29.97R
MARTHAS VNYRD  CLOUDY    41  28  60 NW10      29.97R
$$

MAZALL-290600-
CENTRAL AND WESTERN MASSACHUSETTS

CITY           SKY/WX    TMP DP  RH WIND       PRES   REMARKS
WORCESTER      PTCLDY    33  24  69 W10       29.97R WCI  25
FITCHBURG      PTCLDY    37  25  61 W6        30.00R
ORANGE         MOCLDY    35  22  58 W12G17    29.99S WCI  27
SPRINGFIELD    MOCLDY    36  22  57 NW9       30.02S WCI  29
WESTFIELD      MOCLDY    35  21  56 NW7       30.03S WCI  29
NORTH ADAMS    MOCLDY    34  21  59 W9        30.02S WCI  27
PITTSFIELD     CLOUDY    31  24  75 W8        29.99S WCI  23
$$

RIZALL-290600-
RHODE ISLAND

CITY           SKY/WX    TMP DP  RH WIND       PRES   REMARKS
PROVIDENCE     MOCLDY    39  25  57 NW13      30.01R WCI  31
NEWPORT        PTCLDY    39  27  62 NW13      30.00R WCI  31
BLOCK ISLAND   PTCLDY    41  27  56 NW10G23   30.01R
SMITHFIELD     PTCLDY    36  21  55 W8        29.99R WCI  29
WESTERLY       MOCLDY    39  27  62 VRB6      30.03R
$$

CTZALL-290600-
CONNECTICUT

CITY           SKY/WX    TMP DP  RH WIND       PRES   REMARKS
BRADLEY INTL   MOCLDY    38  23  55 NW7       30.04S
HARTFORD       MOCLDY    38  24  57 VRB6      30.05S
BRIDGEPORT     MOCLDY    41  30  65 N7        30.05R
DANBURY        CLOUDY    38  25  59 N6        30.06R
GROTON         MOCLDY    38  28  67 NW12      30.03R WCI  30
NEW HAVEN      CLOUDY    43  28  55 NW9       30.05R
CHESTER        FAIR      37  28  70 NW12G23   30.03R WCI  30
MERIDEN        MOCLDY    38  25  59 NW7       30.05R
WILLIMANTIC    MOCLDY    37  25  61 NW9       30.03S WCI  30
OXFORD         CLOUDY    36  21  55 N7        30.04S WCI  30
$$

MEZ002-015-021-024-NHZ003-005-008-011-012-014-VTZ005-008-290600-
NORTHERN NEW ENGLAND

CITY           SKY/WX    TMP DP  RH WIND       PRES   REMARKS
PORTLAND ME    CLOUDY    38  26  62 SW6       29.93R
BANGOR ME      CLOUDY    35  23  61 W7        29.88R WCI  29
CONCORD NH     CLOUDY    36  21  54 NW9       29.96R WCI  29
MANCHESTER NH  CLOUDY    38  22  52 NW10      29.97R WCI  31
NASHUA NH      MOCLDY    38  27  65 NW6       29.99R
PORTSMOUTH NH  NOT AVBL
JAFFREY NH     CLOUDY    34  23  64 VRB3      29.96R
KEENE NH       CLOUDY    36  21  55 W13       30.00R WCI  27
BURLINGTON VT  CLOUDY    33  19  56 SW3       29.99F
MT. WASHINGTON SNOWSHWR   7   7 100 NW68G76     N/A  VSB 0   WCI -25
$$

NYZ052-076-290600-
EASTERN NEW YORK

CITY           SKY/WX    TMP DP  RH WIND       PRES   REMARKS
ALBANY         MOCLDY    35  26  69 NW6       30.06S WCI  30
NEW YORK CITY  CLOUDY    42  28  57 NW15G22   30.07R
$$

ANZALL-290600-
MARINE OBSERVATIONS

STATION/POSITION TIME  TEMP    WIND        PRES    VSBY  WAVE
                       AIR SEA DIR/SP/G                  HT/PER
                 (UTC) (F)     (DEG/KT/KT) (MB)    (MI)  (FT/S)
BOSTON BUOY      0450   41 44  290/ 17/ 21 1014.9R         2/ 3
BUZZARDS BAY     0400          300/ 16/ 17 1015.5R
NANTUCKET SOUND  0450   44 45  300/ 16/ 17 1014.4R         1/ 3
MASS BAY-STELLWA 0404   42 44  290/ 16/ 17   N/A    1 7/8  2/ 3
ISLE OF SHOALS   0500   40     290/ 14/ 15 1013.8R
S OF BLOCK IS    0408      51                N/A           5/ 8
$$

......................KEY.........................
  SKY/WX - SKY CONDITION/PRESENT WEATHER
  TMP    - TEMPERATURE IN FAHRENHEIT
  DWPT   - DEWPOINT IN FAHRENHEIT
  RH     - RELATIVE HUMIDITY IN PERCENT
  WIND   - DIRECTION AND SPEED IN MPH
  PRES   - MEAN SEA LEVEL PRESSURE IN INCHES OF HG
  WCI    - WIND CHILL INDEX
  VSB    - VISIBILITY IN MILES
  HX     - HEAT INDEX
  TC     - TEMPERATURE IN CELSIUS
  VRB    - VARIABLE WIND DIRECTION
  N/A    - NOT AVAILABLE


USA.gov is the U.S. government's official web portal to all federal, state and local government web resources and services.